Tracking 18840 objects as of 18-November-2017
HD Live streaming from Space Station
objects crossing your sky now

SL-8 DEB

Track SL-8 DEB now!
10-day predictions


NORAD ID: 18545
Int'l Code: 1986-100C
Perigee: 882.1 km
Apogee: 902.0 km
Inclination: 82.9 °
Period: 102.7 minutes
Semi major axis: 7263 km
RCS: 0.0131 m2 (small)
Launch date: December 17, 1986
Source: Commonwealth of Independent States (former USSR) (CIS)
Launch site: PLESETSK MISSILE AND SPACE COMPLEX (PKMTR)

Note: This is SATELLITE DEBRIS
aabbcc
Your satellite tracking list
Your tracking list is empty




NASA's NSSDC Master Catalog

Two Line Element Set (TLE):
1 18545U 86100C   17321.74943811 +.00000732 +00000-0 +46465-3 0  9999
2 18545 082.9284 061.3051 0013722 045.7875 080.2885 14.02575889565348
Source of the keplerian elements: AFSPC